Time,TemperatureF,DewpointF,PressureIn,WindDirection,WindDirectionDegrees,WindSpeedMPH,WindSpeedGustMPH,Humidity,HourlyPrecipIn,Conditions,Clouds,dailyrainin,SolarRadiationWatts/m^2,SoftwareType,DateUTC
2013-12-12 00:01:00,18.5,12.5,30.10,West,269,4.0,8.0,77,0.00,,,0.00,0.0,WUHU216DAVISVP2,2013-12-12 05:01:00,
2013-12-12 00:06:00,18.2,12.2,30.10,NW,304,2.0,8.0,77,0.00,,,0.00,0.0,WUHU216DAVISVP2,2013-12-12 05:06:00,
2013-12-12 00:11:00,18.0,12.0,30.10,West,271,2.0,9.0,77,0.00,,,0.00,0.0,WUHU216DAVISVP2,2013-12-12 05:11:00,
2013-12-12 00:16:00,17.7,11.7,30.11,West,281,1.0,9.0,77,0.00,,,0.00,0.0,WUHU216DAVISVP2,2013-12-12 05:16:00,
2013-12-12 00:21:00,17.6,11.6,30.10,WNW,298,3.0,9.0,77,0.00,,,0.00,0.0,WUHU216DAVISVP2,2013-12-12 05:21:00,
2013-12-12 00:26:00,17.5,11.5,30.11,WNW,288,2.0,9.0,77,0.00,,,0.00,0.0,WUHU216DAVISVP2,2013-12-12 05:26:00,
2013-12-12 00:31:00,17.2,11.2,30.11,WNW,288,0.0,5.0,77,0.00,,,0.00,0.0,WUHU216DAVISVP2,2013-12-12 05:31:00,
2013-12-12 00:36:00,16.9,11.0,30.11,WNW,290,0.0,5.0,77,0.00,,,0.00,0.0,WUHU216DAVISVP2,2013-12-12 05:36:00,
2013-12-12 00:41:00,16.6,10.6,30.11,WNW,286,0.0,4.0,77,0.00,,,0.00,0.0,WUHU216DAVISVP2,2013-12-12 05:41:00,
2013-12-12 00:46:00,16.4,10.8,30.11,WNW,286,0.0,4.0,78,0.00,,,0.00,0.0,WUHU216DAVISVP2,2013-12-12 05:46:00,
2013-12-12 00:51:00,16.2,10.6,30.11,WNW,286,0.0,4.0,78,0.00,,,0.00,0.0,WUHU216DAVISVP2,2013-12-12 05:51:00,
2013-12-12 00:56:00,16.1,10.4,30.11,WNW,286,0.0,2.0,78,0.00,,,0.00,0.0,WUHU216DAVISVP2,2013-12-12 05:56:00,
2013-12-12 01:01:00,15.9,10.3,30.11,WNW,286,0.0,2.0,78,0.00,,,0.00,0.0,WUHU216DAVISVP2,2013-12-12 06:01:00,
2013-12-12 01:06:00,15.5,9.6,30.11,WNW,286,0.0,1.0,77,0.00,,,0.00,0.0,WUHU216DAVISVP2,2013-12-12 06:06:00,
2013-12-12 01:11:00,15.2,9.6,30.11,WNW,286,0.0,1.0,78,0.00,,,0.00,0.0,WUHU216DAVISVP2,2013-12-12 06:11:00,
2013-12-12 01:16:00,14.9,9.3,30.12,WNW,286,0.0,1.0,78,0.00,,,0.00,0.0,WUHU216DAVISVP2,2013-12-12 06:16:00,
2013-12-12 01:21:00,14.6,9.0,30.12,WNW,286,0.0,1.0,78,0.00,,,0.00,0.0,WUHU216DAVISVP2,2013-12-12 06:21:00,
2013-12-12 01:26:00,14.4,8.8,30.12,WNW,286,0.0,1.0,78,0.00,,,0.00,0.0,WUHU216DAVISVP2,2013-12-12 06:26:00,
2013-12-12 01:31:00,14.0,8.4,30.12,WNW,286,0.0,1.0,78,0.00,,,0.00,0.0,WUHU216DAVISVP2,2013-12-12 06:31:00,
2013-12-12 01:36:00,13.7,8.4,30.12,WNW,286,0.0,1.0,79,0.00,,,0.00,0.0,WUHU216DAVISVP2,2013-12-12 06:36:00,
2013-12-12 01:41:00,13.4,8.1,30.12,WNW,286,0.0,1.0,79,0.00,,,0.00,0.0,WUHU216DAVISVP2,2013-12-12 06:41:00,
2013-12-12 01:46:00,13.1,7.8,30.13,WNW,286,1.0,1.0,79,0.00,,,0.00,0.0,WUHU216DAVISVP2,2013-12-12 06:46:00,
2013-12-12 01:51:00,12.7,7.4,30.13,WNW,286,0.0,1.0,79,0.00,,,0.00,0.0,WUHU216DAVISVP2,2013-12-12 06:51:00,
2013-12-12 01:56:00,12.5,7.5,30.13,WNW,286,0.0,1.0,80,0.00,,,0.00,0.0,WUHU216DAVISVP2,2013-12-12 06:56:00,
2013-12-12 02:01:00,12.2,7.2,30.13,WNW,286,0.0,1.0,80,0.00,,,0.00,0.0,WUHU216DAVISVP2,2013-12-12 07:01:00,
2013-12-12 02:06:00,12.0,7.0,30.13,WNW,286,0.0,1.0,80,0.00,,,0.00,0.0,WUHU216DAVISVP2,2013-12-12 07:06:00,
2013-12-12 02:11:00,11.8,6.8,30.14,WNW,286,0.0,1.0,80,0.00,,,0.00,0.0,WUHU216DAVISVP2,2013-12-12 07:11:00,
2013-12-12 02:16:00,11.6,6.6,30.14,WNW,286,0.0,1.0,80,0.00,,,0.00,0.0,WUHU216DAVISVP2,2013-12-12 07:16:00,
2013-12-12 02:21:00,11.4,6.7,30.14,WNW,286,0.0,1.0,81,0.00,,,0.00,0.0,WUHU216DAVISVP2,2013-12-12 07:21:00,
2013-12-12 02:26:00,11.3,6.6,30.14,WNW,286,0.0,1.0,81,0.00,,,0.00,0.0,WUHU216DAVISVP2,2013-12-12 07:26:00,
2013-12-12 02:31:00,11.1,6.7,30.14,WNW,286,0.0,2.0,82,0.00,,,0.00,0.0,WUHU216DAVISVP2,2013-12-12 07:31:00,
2013-12-12 02:36:00,11.0,6.6,30.14,WNW,286,0.0,2.0,82,0.00,,,0.00,0.0,WUHU216DAVISVP2,2013-12-12 07:36:00,
2013-12-12 02:41:00,10.9,6.5,30.14,WNW,286,0.0,2.0,82,0.00,,,0.00,0.0,WUHU216DAVISVP2,2013-12-12 07:41:00,
2013-12-12 02:46:00,10.7,6.3,30.14,WNW,286,0.0,2.0,82,0.00,,,0.00,0.0,WUHU216DAVISVP2,2013-12-12 07:46:00,
2013-12-12 02:51:00,10.5,5.8,30.14,WNW,286,0.0,1.0,81,0.00,,,0.00,0.0,WUHU216DAVISVP2,2013-12-12 07:51:00,
2013-12-12 02:56:00,10.3,5.9,30.14,WNW,286,1.0,1.0,82,0.00,,,0.00,0.0,WUHU216DAVISVP2,2013-12-12 07:56:00,
2013-12-12 03:01:00,9.9,5.5,30.14,WNW,286,0.0,2.0,82,0.00,,,0.00,0.0,WUHU216DAVISVP2,2013-12-12 08:01:00,
2013-12-12 03:06:00,9.6,5.2,30.14,WNW,286,0.0,2.0,82,0.00,,,0.00,0.0,WUHU216DAVISVP2,2013-12-12 08:06:00,
2013-12-12 03:11:00,9.6,5.2,30.14,WNW,286,0.0,2.0,82,0.00,,,0.00,0.0,WUHU216DAVISVP2,2013-12-12 08:11:00,
2013-12-12 03:16:00,9.4,4.7,30.14,WNW,286,0.0,2.0,81,0.00,,,0.00,0.0,WUHU216DAVISVP2,2013-12-12 08:16:00,
2013-12-12 03:21:00,9.2,4.6,30.14,WNW,286,0.0,1.0,81,0.00,,,0.00,0.0,WUHU216DAVISVP2,2013-12-12 08:21:00,
2013-12-12 03:26:00,9.0,4.3,30.14,WNW,286,0.0,1.0,81,0.00,,,0.00,0.0,WUHU216DAVISVP2,2013-12-12 08:26:00,
2013-12-12 03:31:00,8.7,4.1,30.14,WNW,286,0.0,1.0,81,0.00,,,0.00,0.0,WUHU216DAVISVP2,2013-12-12 08:31:00,
2013-12-12 03:36:00,8.6,4.0,30.14,WNW,286,0.0,1.0,81,0.00,,,0.00,0.0,WUHU216DAVISVP2,2013-12-12 08:36:00,
2013-12-12 03:41:00,8.4,3.8,30.14,WNW,286,0.0,1.0,81,0.00,,,0.00,0.0,WUHU216DAVISVP2,2013-12-12 08:41:00,
2013-12-12 03:46:00,8.2,3.6,30.14,WNW,286,0.0,1.0,81,0.00,,,0.00,0.0,WUHU216DAVISVP2,2013-12-12 08:46:00,
2013-12-12 03:51:00,8.0,3.4,30.14,WNW,286,0.0,1.0,81,0.00,,,0.00,0.0,WUHU216DAVISVP2,2013-12-12 08:51:00,
2013-12-12 03:56:00,7.8,3.2,30.13,WNW,286,0.0,1.0,81,0.00,,,0.00,0.0,WUHU216DAVISVP2,2013-12-12 08:56:00,
2013-12-12 04:01:00,7.6,3.0,30.13,WNW,286,0.0,1.0,81,0.00,,,0.00,0.0,WUHU216DAVISVP2,2013-12-12 09:01:00,
2013-12-12 04:06:00,7.4,2.8,30.13,WNW,286,0.0,1.0,81,0.00,,,0.00,0.0,WUHU216DAVISVP2,2013-12-12 09:06:00,
2013-12-12 04:11:00,7.3,2.7,30.13,WNW,286,0.0,1.0,81,0.00,,,0.00,0.0,WUHU216DAVISVP2,2013-12-12 09:11:00,
2013-12-12 04:16:00,7.1,2.5,30.14,WNW,286,1.0,1.0,81,0.00,,,0.00,0.0,WUHU216DAVISVP2,2013-12-12 09:16:00,
2013-12-12 04:21:00,6.9,2.3,30.14,WNW,286,0.0,2.0,81,0.00,,,0.00,0.0,WUHU216DAVISVP2,2013-12-12 09:21:00,
2013-12-12 04:26:00,6.7,2.4,30.14,WNW,286,0.0,2.0,82,0.00,,,0.00,0.0,WUHU216DAVISVP2,2013-12-12 09:26:00,
2013-12-12 04:31:00,6.6,2.0,30.14,WNW,286,0.0,2.0,81,0.00,,,0.00,0.0,WUHU216DAVISVP2,2013-12-12 09:31:00,
2013-12-12 04:36:00,6.4,1.8,30.14,WNW,286,0.0,1.0,81,0.00,,,0.00,0.0,WUHU216DAVISVP2,2013-12-12 09:36:00,
2013-12-12 04:41:00,6.3,2.0,30.14,WNW,286,0.0,1.0,82,0.00,,,0.00,0.0,WUHU216DAVISVP2,2013-12-12 09:41:00,
2013-12-12 04:46:00,6.2,1.9,30.14,WNW,286,0.0,1.0,82,0.00,,,0.00,0.0,WUHU216DAVISVP2,2013-12-12 09:46:00,
2013-12-12 04:51:00,6.1,1.8,30.15,WNW,286,1.0,1.0,82,0.00,,,0.00,0.0,WUHU216DAVISVP2,2013-12-12 09:51:00,
2013-12-12 04:56:00,6.0,1.9,30.15,WNW,286,0.0,2.0,83,0.00,,,0.00,0.0,WUHU216DAVISVP2,2013-12-12 09:56:00,
2013-12-12 05:01:00,5.9,1.8,30.15,WNW,286,0.0,2.0,83,0.00,,,0.00,0.0,WUHU216DAVISVP2,2013-12-12 10:01:00,
2013-12-12 05:06:00,5.8,1.5,30.15,WNW,286,0.0,2.0,82,0.00,,,0.00,0.0,WUHU216DAVISVP2,2013-12-12 10:06:00,
2013-12-12 05:11:00,5.7,1.4,30.15,WNW,286,0.0,1.0,82,0.00,,,0.00,0.0,WUHU216DAVISVP2,2013-12-12 10:11:00,
2013-12-12 05:16:00,5.6,1.3,30.15,WNW,286,0.0,0.0,82,0.00,,,0.00,0.0,WUHU216DAVISVP2,2013-12-12 10:16:00,
2013-12-12 05:21:00,5.4,1.1,30.16,WNW,286,0.0,0.0,82,0.00,,,0.00,0.0,WUHU216DAVISVP2,2013-12-12 10:21:00,
2013-12-12 05:26:00,5.3,1.0,30.16,WNW,286,0.0,0.0,82,0.00,,,0.00,0.0,WUHU216DAVISVP2,2013-12-12 10:26:00,
2013-12-12 05:31:00,5.2,0.9,30.16,WNW,286,0.0,1.0,82,0.00,,,0.00,0.0,WUHU216DAVISVP2,2013-12-12 10:31:00,
2013-12-12 05:36:00,5.3,1.2,30.16,WNW,286,0.0,1.0,83,0.00,,,0.00,0.0,WUHU216DAVISVP2,2013-12-12 10:36:00,
2013-12-12 05:41:00,5.4,1.6,30.16,WNW,286,0.0,1.0,84,0.00,,,0.00,0.0,WUHU216DAVISVP2,2013-12-12 10:41:00,
2013-12-12 05:46:00,5.4,1.6,30.16,WNW,286,0.0,1.0,84,0.00,,,0.00,0.0,WUHU216DAVISVP2,2013-12-12 10:46:00,
2013-12-12 05:51:00,5.4,1.6,30.17,WNW,286,0.0,1.0,84,0.00,,,0.00,0.0,WUHU216DAVISVP2,2013-12-12 10:51:00,
2013-12-12 05:56:00,5.3,1.5,30.17,WNW,286,0.0,1.0,84,0.00,,,0.00,0.0,WUHU216DAVISVP2,2013-12-12 10:56:00,
2013-12-12 06:01:00,5.2,1.1,30.17,WNW,286,0.0,1.0,83,0.00,,,0.00,0.0,WUHU216DAVISVP2,2013-12-12 11:01:00,
2013-12-12 06:06:00,5.1,1.0,30.18,WNW,286,0.0,1.0,83,0.00,,,0.00,0.0,WUHU216DAVISVP2,2013-12-12 11:06:00,
2013-12-12 06:11:00,5.0,0.9,30.18,WNW,286,0.0,1.0,83,0.00,,,0.00,0.0,WUHU216DAVISVP2,2013-12-12 11:11:00,
2013-12-12 06:16:00,4.9,0.9,30.18,WNW,286,0.0,1.0,83,0.00,,,0.00,0.0,WUHU216DAVISVP2,2013-12-12 11:16:00,
2013-12-12 06:21:00,4.9,0.6,30.18,WNW,286,1.0,1.0,82,0.00,,,0.00,0.0,WUHU216DAVISVP2,2013-12-12 11:21:00,
2013-12-12 06:26:00,4.7,0.4,30.19,WNW,286,0.0,1.0,82,0.00,,,0.00,0.0,WUHU216DAVISVP2,2013-12-12 11:26:00,
2013-12-12 06:31:00,4.7,0.4,30.19,WNW,286,1.0,2.0,82,0.00,,,0.00,0.0,WUHU216DAVISVP2,2013-12-12 11:31:00,
2013-12-12 06:36:00,5.0,1.2,30.19,WNW,286,1.0,2.0,84,0.00,,,0.00,0.0,WUHU216DAVISVP2,2013-12-12 11:36:00,
2013-12-12 06:41:00,4.9,0.9,30.19,WNW,286,0.0,2.0,83,0.00,,,0.00,0.0,WUHU216DAVISVP2,2013-12-12 11:41:00,
2013-12-12 06:46:00,4.8,0.8,30.20,WNW,286,0.0,2.0,83,0.00,,,0.00,0.0,WUHU216DAVISVP2,2013-12-12 11:46:00,
2013-12-12 06:51:00,4.7,0.7,30.20,WNW,286,0.0,2.0,83,0.00,,,0.00,0.0,WUHU216DAVISVP2,2013-12-12 11:51:00,
2013-12-12 06:56:00,4.6,0.3,30.20,WNW,286,1.0,1.0,82,0.00,,,0.00,0.0,WUHU216DAVISVP2,2013-12-12 11:56:00,
2013-12-12 07:01:00,4.5,0.2,30.20,WNW,286,0.0,1.0,82,0.00,,,0.00,0.0,WUHU216DAVISVP2,2013-12-12 12:01:00,
2013-12-12 07:06:00,4.5,0.2,30.20,WNW,286,0.0,1.0,82,0.00,,,0.00,0.0,WUHU216DAVISVP2,2013-12-12 12:06:00,
2013-12-12 07:11:00,4.4,0.4,30.20,WNW,286,0.0,1.0,83,0.00,,,0.00,0.0,WUHU216DAVISVP2,2013-12-12 12:11:00,
2013-12-12 07:16:00,4.4,0.1,30.21,WNW,286,0.0,1.0,82,0.00,,,0.00,0.0,WUHU216DAVISVP2,2013-12-12 12:16:00,
2013-12-12 07:21:00,4.2,-0.1,30.21,WNW,286,0.0,1.0,82,0.00,,,0.00,5.0,WUHU216DAVISVP2,2013-12-12 12:21:00,
2013-12-12 07:26:00,4.2,-0.1,30.21,WNW,286,2.0,2.0,82,0.00,,,0.00,5.0,WUHU216DAVISVP2,2013-12-12 12:26:00,
2013-12-12 07:31:00,4.1,0.1,30.21,WNW,286,0.0,2.0,83,0.00,,,0.00,7.0,WUHU216DAVISVP2,2013-12-12 12:31:00,
2013-12-12 07:36:00,4.1,-0.2,30.21,WNW,286,0.0,2.0,82,0.00,,,0.00,12.0,WUHU216DAVISVP2,2013-12-12 12:36:00,
2013-12-12 07:41:00,4.0,-0.3,30.21,WNW,286,1.0,2.0,82,0.00,,,0.00,14.0,WUHU216DAVISVP2,2013-12-12 12:41:00,
2013-12-12 07:46:00,4.0,-0.3,30.22,WNW,286,0.0,2.0,82,0.00,,,0.00,14.0,WUHU216DAVISVP2,2013-12-12 12:46:00,
2013-12-12 07:51:00,4.0,-0.3,30.22,WNW,286,0.0,1.0,82,0.00,,,0.00,16.0,WUHU216DAVISVP2,2013-12-12 12:51:00,
2013-12-12 07:56:00,4.0,-0.3,30.22,WNW,286,0.0,1.0,82,0.00,,,0.00,18.0,WUHU216DAVISVP2,2013-12-12 12:56:00,
2013-12-12 08:01:00,4.1,0.1,30.22,WNW,286,0.0,1.0,83,0.00,,,0.00,19.0,WUHU216DAVISVP2,2013-12-12 13:01:00,
2013-12-12 08:06:00,4.2,0.2,30.23,WNW,286,0.0,1.0,83,0.00,,,0.00,21.0,WUHU216DAVISVP2,2013-12-12 13:06:00,
2013-12-12 08:11:00,4.4,0.6,30.23,WNW,286,0.0,1.0,84,0.00,,,0.00,21.0,WUHU216DAVISVP2,2013-12-12 13:11:00,
2013-12-12 08:16:00,4.7,0.9,30.23,WNW,286,0.0,2.0,84,0.00,,,0.00,23.0,WUHU216DAVISVP2,2013-12-12 13:16:00,
2013-12-12 08:21:00,5.0,1.2,30.23,WNW,286,0.0,2.0,84,0.00,,,0.00,23.0,WUHU216DAVISVP2,2013-12-12 13:21:00,
2013-12-12 08:26:00,5.6,2.0,30.23,WNW,288,2.0,3.0,85,0.00,,,0.00,25.0,WUHU216DAVISVP2,2013-12-12 13:26:00,
2013-12-12 08:31:00,7.3,4.0,30.23,WSW,248,2.0,4.0,86,0.00,,,0.00,25.0,WUHU216DAVISVP2,2013-12-12 13:31:00,
2013-12-12 08:36:00,9.1,5.7,30.23,WSW,252,2.0,4.0,86,0.00,,,0.00,26.0,WUHU216DAVISVP2,2013-12-12 13:36:00,
2013-12-12 08:41:00,10.2,6.3,30.23,West,260,4.0,7.0,84,0.00,,,0.00,26.0,WUHU216DAVISVP2,2013-12-12 13:41:00,
2013-12-12 08:46:00,11.1,5.9,30.23,WSW,258,3.0,9.0,79,0.00,,,0.00,28.0,WUHU216DAVISVP2,2013-12-12 13:46:00,
2013-12-12 08:51:00,11.7,5.3,30.24,SSW,200,1.0,9.0,75,0.00,,,0.00,28.0,WUHU216DAVISVP2,2013-12-12 13:51:00,
2013-12-12 08:56:00,12.0,4.4,30.24,South,180,3.0,9.0,71,0.00,,,0.00,30.0,WUHU216DAVISVP2,2013-12-12 13:56:00,
2013-12-12 09:01:00,12.3,4.1,30.24,WNW,287,3.0,9.0,69,0.00,,,0.00,30.0,WUHU216DAVISVP2,2013-12-12 14:01:00,
2013-12-12 09:06:00,12.5,3.6,30.23,West,262,2.0,8.0,67,0.00,,,0.00,30.0,WUHU216DAVISVP2,2013-12-12 14:06:00,
2013-12-12 09:11:00,12.7,3.8,30.24,WSW,248,3.0,8.0,67,0.00,,,0.00,32.0,WUHU216DAVISVP2,2013-12-12 14:11:00,
2013-12-12 09:16:00,13.0,3.8,30.24,WSW,257,3.0,8.0,66,0.00,,,0.00,32.0,WUHU216DAVISVP2,2013-12-12 14:16:00,
2013-12-12 09:21:00,13.2,3.7,30.24,SW,236,4.0,9.0,65,0.00,,,0.00,32.0,WUHU216DAVISVP2,2013-12-12 14:21:00,
2013-12-12 09:26:00,13.4,3.5,30.24,WSW,239,2.0,9.0,64,0.00,,,0.00,33.0,WUHU216DAVISVP2,2013-12-12 14:26:00,
2013-12-12 09:31:00,13.6,3.4,30.24,West,270,3.0,9.0,63,0.00,,,0.00,33.0,WUHU216DAVISVP2,2013-12-12 14:31:00,
2013-12-12 09:36:00,13.8,3.6,30.24,West,273,3.0,9.0,63,0.00,,,0.00,33.0,WUHU216DAVISVP2,2013-12-12 14:36:00,
2013-12-12 09:41:00,14.0,3.4,30.24,WSW,240,4.0,9.0,62,0.00,,,0.00,35.0,WUHU216DAVISVP2,2013-12-12 14:41:00,
2013-12-12 09:46:00,14.1,3.1,30.24,West,281,1.0,9.0,61,0.00,,,0.00,35.0,WUHU216DAVISVP2,2013-12-12 14:46:00,
2013-12-12 09:51:00,14.3,3.3,30.24,West,262,2.0,7.0,61,0.00,,,0.00,35.0,WUHU216DAVISVP2,2013-12-12 14:51:00,
2013-12-12 09:56:00,14.5,3.5,30.23,WSW,249,2.0,8.0,61,0.00,,,0.00,37.0,WUHU216DAVISVP2,2013-12-12 14:56:00,
2013-12-12 10:01:00,14.6,2.5,30.24,West,278,3.0,8.0,58,0.00,,,0.00,40.0,WUHU216DAVISVP2,2013-12-12 15:01:00,
2013-12-12 10:06:00,14.9,3.2,30.24,WNW,288,4.0,8.0,59,0.00,,,0.00,39.0,WUHU216DAVISVP2,2013-12-12 15:06:00,
2013-12-12 10:11:00,15.0,2.5,30.23,WNW,284,4.0,10.0,57,0.00,,,0.00,40.0,WUHU216DAVISVP2,2013-12-12 15:11:00,
2013-12-12 10:16:00,15.2,3.1,30.23,West,277,2.0,10.0,58,0.00,,,0.00,42.0,WUHU216DAVISVP2,2013-12-12 15:16:00,
2013-12-12 10:21:00,15.4,3.2,30.23,West,279,4.0,10.0,58,0.00,,,0.00,49.0,WUHU216DAVISVP2,2013-12-12 15:21:00,
2013-12-12 10:26:00,15.6,2.3,30.23,West,281,2.0,9.0,55,0.00,,,0.00,46.0,WUHU216DAVISVP2,2013-12-12 15:26:00,
2013-12-12 10:31:00,15.8,2.9,30.22,WNW,285,3.0,9.0,56,0.00,,,0.00,51.0,WUHU216DAVISVP2,2013-12-12 15:31:00,
2013-12-12 10:36:00,15.9,2.6,30.22,WSW,248,5.0,10.0,55,0.00,,,0.00,47.0,WUHU216DAVISVP2,2013-12-12 15:36:00,
2013-12-12 10:41:00,16.2,3.2,30.22,West,279,8.0,10.0,56,0.00,,,0.00,51.0,WUHU216DAVISVP2,2013-12-12 15:41:00,
2013-12-12 10:46:00,16.0,1.4,30.22,WSW,258,4.0,13.0,52,0.00,,,0.00,54.0,WUHU216DAVISVP2,2013-12-12 15:46:00,
2013-12-12 10:51:00,15.9,1.7,30.21,West,281,7.0,13.0,53,0.00,,,0.00,60.0,WUHU216DAVISVP2,2013-12-12 15:51:00,
2013-12-12 10:56:00,16.0,1.4,30.21,WNW,301,5.0,13.0,52,0.00,,,0.00,62.0,WUHU216DAVISVP2,2013-12-12 15:56:00,
2013-12-12 11:01:00,16.2,2.0,30.21,West,269,6.0,13.0,53,0.00,,,0.00,63.0,WUHU216DAVISVP2,2013-12-12 16:01:00,
2013-12-12 11:06:00,16.0,0.1,30.20,WNW,286,4.0,15.0,49,0.00,,,0.00,58.0,WUHU216DAVISVP2,2013-12-12 16:06:00,
2013-12-12 11:11:00,16.1,0.2,30.20,WNW,285,6.0,15.0,49,0.00,,,0.00,56.0,WUHU216DAVISVP2,2013-12-12 16:11:00,
2013-12-12 11:16:00,16.2,0.3,30.20,WSW,250,4.0,15.0,49,0.00,,,0.00,169.0,WUHU216DAVISVP2,2013-12-12 16:16:00,
2013-12-12 11:21:00,16.4,0.0,30.19,West,270,4.0,15.0,48,0.00,,,0.00,244.0,WUHU216DAVISVP2,2013-12-12 16:21:00,
2013-12-12 11:26:00,16.5,0.6,30.19,West,273,7.0,10.0,49,0.00,,,0.00,316.0,WUHU216DAVISVP2,2013-12-12 16:26:00,
2013-12-12 11:31:00,16.2,-0.6,30.19,WNW,284,8.0,10.0,47,0.00,,,0.00,371.0,WUHU216DAVISVP2,2013-12-12 16:31:00,
2013-12-12 11:36:00,16.3,-0.4,30.19,WNW,293,3.0,11.0,47,0.00,,,0.00,399.0,WUHU216DAVISVP2,2013-12-12 16:36:00,
2013-12-12 11:41:00,16.8,0.9,30.19,WSW,238,4.0,11.0,49,0.00,,,0.00,418.0,WUHU216DAVISVP2,2013-12-12 16:41:00,
2013-12-12 11:46:00,16.9,0.1,30.18,SW,225,4.0,11.0,47,0.00,,,0.00,425.0,WUHU216DAVISVP2,2013-12-12 16:46:00,
2013-12-12 11:51:00,17.1,-0.3,30.18,West,267,3.0,11.0,46,0.00,,,0.00,425.0,WUHU216DAVISVP2,2013-12-12 16:51:00,
2013-12-12 11:56:00,17.5,-0.4,30.18,WSW,246,2.0,9.0,45,0.00,,,0.00,425.0,WUHU216DAVISVP2,2013-12-12 16:56:00,
2013-12-12 12:01:00,17.6,-0.8,30.18,WSW,253,4.0,10.0,44,0.00,,,0.00,424.0,WUHU216DAVISVP2,2013-12-12 17:01:00,
2013-12-12 12:06:00,17.5,-0.9,30.17,West,279,7.0,10.0,44,0.00,,,0.00,424.0,WUHU216DAVISVP2,2013-12-12 17:06:00,
2013-12-12 12:11:00,17.7,0.3,30.17,WSW,250,4.0,13.0,46,0.00,,,0.00,420.0,WUHU216DAVISVP2,2013-12-12 17:11:00,
2013-12-12 12:16:00,17.7,-0.1,30.17,WSW,240,6.0,13.0,45,0.00,,,0.00,418.0,WUHU216DAVISVP2,2013-12-12 17:16:00,
2013-12-12 12:21:00,18.0,0.1,30.17,West,259,3.0,13.0,45,0.00,,,0.00,417.0,WUHU216DAVISVP2,2013-12-12 17:21:00,
2013-12-12 12:26:00,18.4,0.5,30.17,WNW,286,3.0,11.0,45,0.00,,,0.00,415.0,WUHU216DAVISVP2,2013-12-12 17:26:00,
2013-12-12 12:31:00,18.3,0.0,30.17,WSW,242,5.0,11.0,44,0.00,,,0.00,411.0,WUHU216DAVISVP2,2013-12-12 17:31:00,
2013-12-12 12:36:00,18.5,-0.3,30.17,West,272,3.0,9.0,43,0.00,,,0.00,406.0,WUHU216DAVISVP2,2013-12-12 17:36:00,
2013-12-12 12:41:00,18.7,-0.3,30.17,West,275,6.0,10.0,43,0.00,,,0.00,403.0,WUHU216DAVISVP2,2013-12-12 17:41:00,
2013-12-12 12:46:00,18.9,-0.5,30.17,WNW,283,2.0,10.0,42,0.00,,,0.00,399.0,WUHU216DAVISVP2,2013-12-12 17:46:00,
2013-12-12 12:51:00,19.2,-0.8,30.17,WNW,285,2.0,10.0,41,0.00,,,0.00,394.0,WUHU216DAVISVP2,2013-12-12 17:51:00,
2013-12-12 12:56:00,19.4,-0.7,30.16,West,268,2.0,10.0,41,0.00,,,0.00,388.0,WUHU216DAVISVP2,2013-12-12 17:56:00,
2013-12-12 13:01:00,19.4,0.0,30.16,WNW,299,4.0,11.0,42,0.00,,,0.00,381.0,WUHU216DAVISVP2,2013-12-12 18:01:00,
2013-12-12 13:06:00,19.5,-0.6,30.16,SW,236,6.0,11.0,41,0.00,,,0.00,374.0,WUHU216DAVISVP2,2013-12-12 18:06:00,
2013-12-12 13:11:00,19.3,-1.3,30.16,West,268,6.0,11.0,40,0.00,,,0.00,367.0,WUHU216DAVISVP2,2013-12-12 18:11:00,
2013-12-12 13:16:00,19.5,-0.6,30.16,West,273,3.0,11.0,41,0.00,,,0.00,360.0,WUHU216DAVISVP2,2013-12-12 18:16:00,
2013-12-12 13:21:00,19.6,-1.0,30.15,West,268,4.0,11.0,40,0.00,,,0.00,353.0,WUHU216DAVISVP2,2013-12-12 18:21:00,
2013-12-12 13:26:00,19.8,0.2,30.15,SW,235,10.0,11.0,42,0.00,,,0.00,346.0,WUHU216DAVISVP2,2013-12-12 18:26:00,
2013-12-12 13:31:00,19.9,-0.2,30.15,WNW,297,2.0,10.0,41,0.00,,,0.00,320.0,WUHU216DAVISVP2,2013-12-12 18:31:00,
2013-12-12 13:36:00,19.9,-1.3,30.15,West,262,4.0,11.0,39,0.00,,,0.00,271.0,WUHU216DAVISVP2,2013-12-12 18:36:00,
2013-12-12 13:41:00,19.5,-2.2,30.15,WSW,244,4.0,11.0,38,0.00,,,0.00,220.0,WUHU216DAVISVP2,2013-12-12 18:41:00,
2013-12-12 13:46:00,19.8,-1.2,30.15,WSW,254,5.0,11.0,39,0.00,,,0.00,304.0,WUHU216DAVISVP2,2013-12-12 18:46:00,
2013-12-12 13:51:00,20.0,-1.2,30.15,West,275,4.0,11.0,39,0.00,,,0.00,265.0,WUHU216DAVISVP2,2013-12-12 18:51:00,
2013-12-12 13:56:00,19.8,-0.8,30.15,WSW,252,4.0,10.0,40,0.00,,,0.00,287.0,WUHU216DAVISVP2,2013-12-12 18:56:00,
2013-12-12 14:01:00,20.0,-0.7,30.15,West,273,4.0,10.0,40,0.00,,,0.00,265.0,WUHU216DAVISVP2,2013-12-12 19:01:00,
2013-12-12 14:06:00,20.2,-0.3,30.15,WSW,252,2.0,10.0,40,0.00,,,0.00,265.0,WUHU216DAVISVP2,2013-12-12 19:06:00,
2013-12-12 14:11:00,20.2,-1.0,30.15,SSE,159,2.0,10.0,39,0.00,,,0.00,255.0,WUHU216DAVISVP2,2013-12-12 19:11:00,
2013-12-12 14:16:00,20.2,-0.5,30.15,WSW,255,3.0,10.0,40,0.00,,,0.00,243.0,WUHU216DAVISVP2,2013-12-12 19:16:00,
2013-12-12 14:21:00,20.3,-1.3,30.14,WSW,246,4.0,8.0,38,0.00,,,0.00,230.0,WUHU216DAVISVP2,2013-12-12 19:21:00,
2013-12-12 14:26:00,20.3,-0.9,30.14,WSW,243,3.0,10.0,39,0.00,,,0.00,218.0,WUHU216DAVISVP2,2013-12-12 19:26:00,
2013-12-12 14:31:00,20.2,-1.6,30.14,WSW,252,3.0,10.0,38,0.00,,,0.00,195.0,WUHU216DAVISVP2,2013-12-12 19:31:00,
2013-12-12 14:36:00,20.2,-0.3,30.14,WNW,292,5.0,10.0,40,0.00,,,0.00,192.0,WUHU216DAVISVP2,2013-12-12 19:36:00,
2013-12-12 14:41:00,19.7,-1.5,30.14,WNW,286,6.0,13.0,39,0.00,,,0.00,181.0,WUHU216DAVISVP2,2013-12-12 19:41:00,
2013-12-12 14:46:00,19.8,-0.8,30.14,WNW,297,3.0,13.0,40,0.00,,,0.00,169.0,WUHU216DAVISVP2,2013-12-12 19:46:00,
2013-12-12 14:51:00,19.7,-0.9,30.14,West,276,4.0,13.0,40,0.00,,,0.00,156.0,WUHU216DAVISVP2,2013-12-12 19:51:00,
2013-12-12 14:56:00,19.6,-1.6,30.14,WNW,290,4.0,13.0,39,0.00,,,0.00,142.0,WUHU216DAVISVP2,2013-12-12 19:56:00,
2013-12-12 15:01:00,19.3,-0.8,30.14,WNW,284,3.0,9.0,41,0.00,,,0.00,130.0,WUHU216DAVISVP2,2013-12-12 20:01:00,
2013-12-12 15:06:00,19.3,-1.3,30.14,WNW,289,4.0,9.0,40,0.00,,,0.00,114.0,WUHU216DAVISVP2,2013-12-12 20:06:00,
2013-12-12 15:11:00,19.1,-1.5,30.14,West,277,2.0,9.0,40,0.00,,,0.00,107.0,WUHU216DAVISVP2,2013-12-12 20:11:00,
2013-12-12 15:16:00,19.0,-1.6,30.14,WNW,288,3.0,7.0,40,0.00,,,0.00,102.0,WUHU216DAVISVP2,2013-12-12 20:16:00,
2013-12-12 15:21:00,18.8,-1.2,30.13,WNW,293,2.0,7.0,41,0.00,,,0.00,33.0,WUHU216DAVISVP2,2013-12-12 20:21:00,
2013-12-12 15:26:00,18.4,-2.1,30.13,WSW,252,1.0,7.0,40,0.00,,,0.00,39.0,WUHU216DAVISVP2,2013-12-12 20:26:00,
2013-12-12 15:31:00,18.4,-1.1,30.13,West,275,2.0,7.0,42,0.00,,,0.00,33.0,WUHU216DAVISVP2,2013-12-12 20:31:00,
2013-12-12 15:36:00,18.3,-1.0,30.13,WNW,292,3.0,6.0,42,0.00,,,0.00,51.0,WUHU216DAVISVP2,2013-12-12 20:36:00,
2013-12-12 15:41:00,18.2,-1.8,30.13,West,274,1.0,5.0,41,0.00,,,0.00,47.0,WUHU216DAVISVP2,2013-12-12 20:41:00,
2013-12-12 15:46:00,18.2,-1.2,30.13,West,271,1.0,5.0,42,0.00,,,0.00,46.0,WUHU216DAVISVP2,2013-12-12 20:46:00,
2013-12-12 15:51:00,17.9,-0.5,30.12,West,272,2.0,4.0,44,0.00,,,0.00,16.0,WUHU216DAVISVP2,2013-12-12 20:51:00,
2013-12-12 15:56:00,17.8,-1.6,30.12,West,272,1.0,4.0,42,0.00,,,0.00,11.0,WUHU216DAVISVP2,2013-12-12 20:56:00,
2013-12-12 16:01:00,17.1,0.2,30.12,West,272,1.0,4.0,47,0.00,,,0.00,7.0,WUHU216DAVISVP2,2013-12-12 21:01:00,
2013-12-12 16:06:00,15.9,1.3,30.12,West,272,1.0,3.0,52,0.00,,,0.00,5.0,WUHU216DAVISVP2,2013-12-12 21:06:00,
2013-12-12 16:11:00,15.2,2.3,30.12,West,274,1.0,3.0,56,0.00,,,0.00,5.0,WUHU216DAVISVP2,2013-12-12 21:11:00,
2013-12-12 16:16:00,14.6,1.3,30.12,West,274,0.0,3.0,55,0.00,,,0.00,0.0,WUHU216DAVISVP2,2013-12-12 21:16:00,
2013-12-12 16:21:00,14.1,2.0,30.12,West,274,0.0,3.0,58,0.00,,,0.00,0.0,WUHU216DAVISVP2,2013-12-12 21:21:00,
2013-12-12 16:25:00,13.5,1.9,30.12,West,274,0.0,3.0,59,0.00,,,0.00,0.0,WUHU216DAVISVP2,2013-12-12 21:25:00,
2013-12-12 16:30:00,13.1,2.2,30.12,West,274,0.0,2.0,61,0.00,,,0.00,0.0,WUHU216DAVISVP2,2013-12-12 21:30:00,
2013-12-12 16:35:00,12.7,1.8,30.12,West,274,0.0,1.0,61,0.00,,,0.00,0.0,WUHU216DAVISVP2,2013-12-12 21:35:00,
2013-12-12 16:40:00,12.4,2.6,30.12,West,274,1.0,1.0,64,0.00,,,0.00,0.0,WUHU216DAVISVP2,2013-12-12 21:40:00,
2013-12-12 16:45:00,12.0,2.5,30.12,West,274,0.0,1.0,65,0.00,,,0.00,0.0,WUHU216DAVISVP2,2013-12-12 21:45:00,
2013-12-12 16:50:00,11.8,3.0,30.12,West,274,0.0,2.0,67,0.00,,,0.00,0.0,WUHU216DAVISVP2,2013-12-12 21:50:00,
2013-12-12 16:55:00,11.6,2.5,30.12,West,274,0.0,2.0,66,0.00,,,0.00,0.0,WUHU216DAVISVP2,2013-12-12 21:55:00,
2013-12-12 17:00:00,11.4,2.6,30.12,West,274,0.0,2.0,67,0.00,,,0.00,0.0,WUHU216DAVISVP2,2013-12-12 22:00:00,
2013-12-12 17:05:00,10.8,2.7,30.12,West,274,0.0,2.0,69,0.00,,,0.00,0.0,WUHU216DAVISVP2,2013-12-12 22:05:00,
2013-12-12 17:10:00,10.5,2.6,30.12,West,274,0.0,1.0,70,0.00,,,0.00,0.0,WUHU216DAVISVP2,2013-12-12 22:10:00,
2013-12-12 17:15:00,10.1,2.3,30.12,West,274,0.0,1.0,70,0.00,,,0.00,0.0,WUHU216DAVISVP2,2013-12-12 22:15:00,
2013-12-12 17:20:00,9.9,2.4,30.12,West,274,0.0,1.0,71,0.00,,,0.00,0.0,WUHU216DAVISVP2,2013-12-12 22:20:00,
2013-12-12 17:25:00,10.1,2.6,30.12,West,274,0.0,1.0,71,0.00,,,0.00,0.0,WUHU216DAVISVP2,2013-12-12 22:25:00,
2013-12-12 17:30:00,10.0,2.5,30.12,West,274,0.0,1.0,71,0.00,,,0.00,0.0,WUHU216DAVISVP2,2013-12-12 22:30:00,
2013-12-12 17:35:00,9.9,3.0,30.12,West,274,2.0,2.0,73,0.00,,,0.00,0.0,WUHU216DAVISVP2,2013-12-12 22:35:00,
2013-12-12 17:40:00,9.6,2.7,30.12,West,274,0.0,2.0,73,0.00,,,0.00,0.0,WUHU216DAVISVP2,2013-12-12 22:40:00,
2013-12-12 17:45:00,9.6,3.0,30.12,West,274,0.0,2.0,74,0.00,,,0.00,0.0,WUHU216DAVISVP2,2013-12-12 22:45:00,
2013-12-12 17:50:00,9.4,2.5,30.12,West,274,0.0,2.0,73,0.00,,,0.00,0.0,WUHU216DAVISVP2,2013-12-12 22:50:00,
2013-12-12 17:55:00,9.3,2.7,30.12,West,274,0.0,2.0,74,0.00,,,0.00,0.0,WUHU216DAVISVP2,2013-12-12 22:55:00,
2013-12-12 18:00:00,9.2,2.3,30.12,West,274,0.0,2.0,73,0.00,,,0.00,0.0,WUHU216DAVISVP2,2013-12-12 23:00:00,
2013-12-12 18:05:00,9.5,2.9,30.12,West,274,0.0,2.0,74,0.00,,,0.00,0.0,WUHU216DAVISVP2,2013-12-12 23:05:00,
2013-12-12 18:10:00,9.8,3.2,30.12,West,274,1.0,2.0,74,0.00,,,0.00,0.0,WUHU216DAVISVP2,2013-12-12 23:10:00,
2013-12-12 18:15:00,10.4,3.8,30.12,West,274,0.0,2.0,74,0.00,,,0.00,0.0,WUHU216DAVISVP2,2013-12-12 23:15:00,
2013-12-12 18:20:00,10.5,2.7,30.12,West,274,0.0,2.0,70,0.00,,,0.00,0.0,WUHU216DAVISVP2,2013-12-12 23:20:00,
2013-12-12 18:25:00,10.7,2.3,30.12,West,274,0.0,2.0,68,0.00,,,0.00,0.0,WUHU216DAVISVP2,2013-12-12 23:25:00,
2013-12-12 18:30:00,10.7,2.3,30.12,West,274,0.0,2.0,68,0.00,,,0.00,0.0,WUHU216DAVISVP2,2013-12-12 23:30:00,
2013-12-12 18:35:00,10.7,1.9,30.12,West,274,0.0,2.0,67,0.00,,,0.00,0.0,WUHU216DAVISVP2,2013-12-12 23:35:00,
2013-12-12 18:40:00,10.5,1.7,30.12,West,274,0.0,2.0,67,0.00,,,0.00,0.0,WUHU216DAVISVP2,2013-12-12 23:40:00,
2013-12-12 18:45:00,10.4,2.0,30.12,West,274,0.0,2.0,68,0.00,,,0.00,0.0,WUHU216DAVISVP2,2013-12-12 23:45:00,
2013-12-12 18:50:00,10.3,1.6,30.12,West,274,0.0,2.0,67,0.00,,,0.00,0.0,WUHU216DAVISVP2,2013-12-12 23:50:00,
2013-12-12 18:55:00,10.1,1.6,30.11,West,274,0.0,2.0,68,0.00,,,0.00,0.0,WUHU216DAVISVP2,2013-12-12 23:55:00,
2013-12-12 19:00:00,9.9,1.8,30.11,West,274,0.0,2.0,69,0.00,,,0.00,0.0,WUHU216DAVISVP2,2013-12-13 00:00:00,
2013-12-12 19:05:00,9.7,2.2,30.11,West,274,1.0,2.0,71,0.00,,,0.00,0.0,WUHU216DAVISVP2,2013-12-13 00:05:00,
2013-12-12 19:10:00,9.6,2.4,30.11,West,274,1.0,2.0,72,0.00,,,0.00,0.0,WUHU216DAVISVP2,2013-12-13 00:10:00,
2013-12-12 19:15:00,9.2,2.0,30.11,West,274,0.0,2.0,72,0.00,,,0.00,0.0,WUHU216DAVISVP2,2013-12-13 00:15:00,
2013-12-12 19:20:00,9.0,2.1,30.11,West,274,2.0,2.0,73,0.00,,,0.00,0.0,WUHU216DAVISVP2,2013-12-13 00:20:00,
2013-12-12 19:25:00,8.8,2.2,30.10,West,274,0.0,2.0,74,0.00,,,0.00,0.0,WUHU216DAVISVP2,2013-12-13 00:25:00,
2013-12-12 19:30:00,8.7,2.1,30.10,West,274,0.0,2.0,74,0.00,,,0.00,0.0,WUHU216DAVISVP2,2013-12-13 00:30:00,
2013-12-12 19:35:00,8.4,2.1,30.10,West,274,1.0,3.0,75,0.00,,,0.00,0.0,WUHU216DAVISVP2,2013-12-13 00:35:00,
2013-12-12 19:40:00,8.2,1.9,30.10,West,273,2.0,3.0,75,0.00,,,0.00,0.0,WUHU216DAVISVP2,2013-12-13 00:40:00,
2013-12-12 19:45:00,8.0,2.0,30.10,West,273,0.0,3.0,76,0.00,,,0.00,0.0,WUHU216DAVISVP2,2013-12-13 00:45:00,
2013-12-12 19:50:00,7.8,1.8,30.10,West,273,0.0,3.0,76,0.00,,,0.00,0.0,WUHU216DAVISVP2,2013-12-13 00:50:00,
2013-12-12 19:55:00,7.6,1.6,30.09,West,273,0.0,3.0,76,0.00,,,0.00,0.0,WUHU216DAVISVP2,2013-12-13 00:55:00,
2013-12-12 20:00:00,7.4,1.4,30.09,West,273,1.0,3.0,76,0.00,,,0.00,0.0,WUHU216DAVISVP2,2013-12-13 01:00:00,
2013-12-12 20:05:00,7.3,1.6,30.09,West,273,0.0,3.0,77,0.00,,,0.00,0.0,WUHU216DAVISVP2,2013-12-13 01:05:00,
2013-12-12 20:10:00,7.2,1.8,30.09,West,273,0.0,3.0,78,0.00,,,0.00,0.0,WUHU216DAVISVP2,2013-12-13 01:10:00,
2013-12-12 20:15:00,7.1,1.7,30.08,West,273,0.0,3.0,78,0.00,,,0.00,0.0,WUHU216DAVISVP2,2013-12-13 01:15:00,
2013-12-12 20:20:00,6.8,1.4,30.08,West,259,2.0,3.0,78,0.00,,,0.00,0.0,WUHU216DAVISVP2,2013-12-13 01:20:00,
2013-12-12 20:25:00,6.5,1.1,30.08,West,259,0.0,3.0,78,0.00,,,0.00,0.0,WUHU216DAVISVP2,2013-12-13 01:25:00,
2013-12-12 20:30:00,6.4,1.0,30.08,West,259,0.0,3.0,78,0.00,,,0.00,0.0,WUHU216DAVISVP2,2013-12-13 01:30:00,
2013-12-12 20:35:00,6.3,0.9,30.07,West,259,0.0,3.0,78,0.00,,,0.00,0.0,WUHU216DAVISVP2,2013-12-13 01:35:00,
2013-12-12 20:40:00,6.2,1.1,30.07,West,259,0.0,2.0,79,0.00,,,0.00,0.0,WUHU216DAVISVP2,2013-12-13 01:40:00,
2013-12-12 20:45:00,6.1,1.0,30.06,West,259,0.0,2.0,79,0.00,,,0.00,0.0,WUHU216DAVISVP2,2013-12-13 01:45:00,
2013-12-12 20:50:00,5.9,0.8,30.06,West,259,0.0,2.0,79,0.00,,,0.00,0.0,WUHU216DAVISVP2,2013-12-13 01:50:00,
2013-12-12 20:55:00,5.9,0.8,30.06,West,259,0.0,1.0,79,0.00,,,0.00,0.0,WUHU216DAVISVP2,2013-12-13 01:55:00,
2013-12-12 21:00:00,5.6,0.5,30.06,West,259,0.0,2.0,79,0.00,,,0.00,0.0,WUHU216DAVISVP2,2013-12-13 02:00:00,
2013-12-12 21:05:00,5.5,0.4,30.06,West,259,0.0,2.0,79,0.00,,,0.00,0.0,WUHU216DAVISVP2,2013-12-13 02:05:00,
2013-12-12 21:10:00,5.3,0.5,30.05,West,259,0.0,2.0,80,0.00,,,0.00,0.0,WUHU216DAVISVP2,2013-12-13 02:10:00,
2013-12-12 21:15:00,5.1,0.3,30.05,West,259,1.0,2.0,80,0.00,,,0.00,0.0,WUHU216DAVISVP2,2013-12-13 02:15:00,
2013-12-12 21:20:00,5.0,0.2,30.05,West,259,1.0,2.0,80,0.00,,,0.00,0.0,WUHU216DAVISVP2,2013-12-13 02:20:00,
2013-12-12 21:25:00,4.8,0.0,30.04,West,259,0.0,2.0,80,0.00,,,0.00,0.0,WUHU216DAVISVP2,2013-12-13 02:25:00,
2013-12-12 21:30:00,4.7,-0.1,30.04,West,259,0.0,1.0,80,0.00,,,0.00,0.0,WUHU216DAVISVP2,2013-12-13 02:30:00,
2013-12-12 21:35:00,4.6,-0.2,30.04,West,259,0.0,2.0,80,0.00,,,0.00,0.0,WUHU216DAVISVP2,2013-12-13 02:35:00,
2013-12-12 21:40:00,4.5,0.0,30.04,West,259,0.0,2.0,81,0.00,,,0.00,0.0,WUHU216DAVISVP2,2013-12-13 02:40:00,
2013-12-12 21:45:00,4.5,0.0,30.03,West,259,0.0,2.0,81,0.00,,,0.00,0.0,WUHU216DAVISVP2,2013-12-13 02:45:00,
2013-12-12 21:50:00,4.6,0.1,30.03,West,259,0.0,2.0,81,0.00,,,0.00,0.0,WUHU216DAVISVP2,2013-12-13 02:50:00,
2013-12-12 21:55:00,4.5,0.0,30.03,West,259,1.0,2.0,81,0.00,,,0.00,0.0,WUHU216DAVISVP2,2013-12-13 02:55:00,
2013-12-12 22:00:00,4.3,-0.2,30.03,West,259,0.0,2.0,81,0.00,,,0.00,0.0,WUHU216DAVISVP2,2013-12-13 03:00:00,
2013-12-12 22:05:00,4.2,-0.3,30.03,West,259,1.0,2.0,81,0.00,,,0.00,0.0,WUHU216DAVISVP2,2013-12-13 03:05:00,
2013-12-12 22:10:00,4.0,-0.5,30.02,West,259,0.0,2.0,81,0.00,,,0.00,0.0,WUHU216DAVISVP2,2013-12-13 03:10:00,
2013-12-12 22:15:00,4.0,-0.5,30.02,West,259,1.0,2.0,81,0.00,,,0.00,0.0,WUHU216DAVISVP2,2013-12-13 03:15:00,
2013-12-12 22:20:00,3.8,-0.7,30.02,West,259,0.0,2.0,81,0.00,,,0.00,0.0,WUHU216DAVISVP2,2013-12-13 03:20:00,
2013-12-12 22:25:00,3.8,-0.5,30.01,West,259,0.0,2.0,82,0.00,,,0.00,0.0,WUHU216DAVISVP2,2013-12-13 03:25:00,
2013-12-12 22:30:00,3.7,-0.6,30.01,West,259,0.0,2.0,82,0.00,,,0.00,0.0,WUHU216DAVISVP2,2013-12-13 03:30:00,
2013-12-12 22:35:00,3.7,-0.6,30.01,West,259,1.0,2.0,82,0.00,,,0.00,0.0,WUHU216DAVISVP2,2013-12-13 03:35:00,
2013-12-12 22:40:00,3.6,-0.7,30.01,West,259,0.0,2.0,82,0.00,,,0.00,0.0,WUHU216DAVISVP2,2013-12-13 03:40:00,
2013-12-12 22:45:00,3.4,-0.9,30.01,West,259,1.0,2.0,82,0.00,,,0.00,0.0,WUHU216DAVISVP2,2013-12-13 03:45:00,
2013-12-12 22:50:00,3.3,-1.0,30.00,West,259,0.0,2.0,82,0.00,,,0.00,0.0,WUHU216DAVISVP2,2013-12-13 03:50:00,
2013-12-12 22:55:00,3.2,-1.1,30.00,West,259,1.0,2.0,82,0.00,,,0.00,0.0,WUHU216DAVISVP2,2013-12-13 03:55:00,
2013-12-12 23:00:00,3.1,-1.2,30.00,West,259,0.0,2.0,82,0.00,,,0.00,0.0,WUHU216DAVISVP2,2013-12-13 04:00:00,
2013-12-12 23:05:00,3.1,-1.2,30.00,West,259,0.0,2.0,82,0.00,,,0.00,0.0,WUHU216DAVISVP2,2013-12-13 04:05:00,
2013-12-12 23:10:00,2.9,-1.4,30.00,West,259,0.0,2.0,82,0.00,,,0.00,0.0,WUHU216DAVISVP2,2013-12-13 04:10:00,
2013-12-12 23:15:00,2.9,-1.3,30.00,West,259,1.0,2.0,82,0.00,,,0.00,0.0,WUHU216DAVISVP2,2013-12-13 04:15:00,
2013-12-12 23:20:00,2.8,-1.5,29.99,West,259,0.0,2.0,82,0.00,,,0.00,0.0,WUHU216DAVISVP2,2013-12-13 04:20:00,
2013-12-12 23:25:00,2.8,-1.5,29.99,West,259,0.0,2.0,82,0.00,,,0.00,0.0,WUHU216DAVISVP2,2013-12-13 04:25:00,
2013-12-12 23:30:00,2.8,-1.4,29.99,West,259,0.0,2.0,82,0.00,,,0.00,0.0,WUHU216DAVISVP2,2013-12-13 04:30:00,
2013-12-12 23:35:00,2.7,-1.6,29.99,West,259,0.0,1.0,82,0.00,,,0.00,0.0,WUHU216DAVISVP2,2013-12-13 04:35:00,
2013-12-12 23:40:00,2.7,-1.6,29.99,West,259,0.0,1.0,82,0.00,,,0.00,0.0,WUHU216DAVISVP2,2013-12-13 04:40:00,
2013-12-12 23:45:00,2.6,-1.7,29.98,West,259,0.0,1.0,82,0.00,,,0.00,0.0,WUHU216DAVISVP2,2013-12-13 04:45:00,
2013-12-12 23:50:00,2.5,-1.8,29.98,West,259,1.0,2.0,82,0.00,,,0.00,0.0,WUHU216DAVISVP2,2013-12-13 04:50:00,
2013-12-12 23:55:00,2.6,-1.6,29.98,West,259,1.0,2.0,82,0.00,,,0.00,0.0,WUHU216DAVISVP2,2013-12-13 04:55:00,